N882IS PAJN-PANR

Flight info

Callsign N882IS
Flight time 0h 12m
Altitude 1500
Route DCT 582008N1344436W 581631N1345112W DCT
Aircraft C172/L-SBDGR/C

Departure

Time 2026-04-29 13:02
Airport Juneau International Airport (PAJN)

Arrival

Time 2026-04-29 13:14
Airport Funter Bay Seaplane Base (PANR)
Time Latitude Longitude Altitude Speed Heading
2026-04-29 12:52 58.35689 -134.59761 6 ft 0 kts 105°
2026-04-29 12:53 58.35688 -134.59761 6 ft 0 kts 104°
2026-04-29 12:54 58.35688 -134.59763 6 ft 0 kts 104°
2026-04-29 12:56 58.35686 -134.59741 6 ft 2 kts 100°
2026-04-29 12:56 58.35681 -134.59703 6 ft 3 kts 109°
2026-04-29 12:57 58.35674 -134.59660 6 ft 3 kts 107°
2026-04-29 12:57 58.35668 -134.59616 6 ft 3 kts 105°
2026-04-29 12:57 58.35658 -134.59578 6 ft 3 kts 156°
2026-04-29 12:57 58.35634 -134.59575 7 ft 3 kts 202°
2026-04-29 12:58 58.35617 -134.59608 8 ft 3 kts 265°
2026-04-29 12:58 58.35617 -134.59659 8 ft 3 kts 282°
2026-04-29 12:58 58.35623 -134.59709 7 ft 3 kts 286°
2026-04-29 12:58 58.35631 -134.59758 6 ft 3 kts 291°
2026-04-29 12:59 58.35640 -134.59807 5 ft 3 kts 291°
2026-04-29 12:59 58.35657 -134.59850 4 ft 4 kts 270°
2026-04-29 12:59 58.35644 -134.59886 4 ft 3 kts 169°
2026-04-29 12:59 58.35628 -134.59859 5 ft 3 kts 78°
2026-04-29 13:00 58.35634 -134.59816 5 ft 3 kts 77°
2026-04-29 13:00 58.35634 -134.59772 6 ft 3 kts 103°
2026-04-29 13:00 58.35629 -134.59731 6 ft 3 kts 107°
2026-04-29 13:00 58.35623 -134.59689 7 ft 4 kts 103°
2026-04-29 13:01 58.35598 -134.59514 7 ft 19 kts 104°
2026-04-29 13:01 58.35555 -134.59175 5 ft 35 kts 102°
2026-04-29 13:01 58.35466 -134.58536 40 ft 64 kts 104°
2026-04-29 13:01 58.35341 -134.57687 185 ft 68 kts 104°
2026-04-29 13:02 58.35204 -134.56778 294 ft 75 kts 107°
2026-04-29 13:02 58.35055 -134.55856 497 ft 69 kts 109°
2026-04-29 13:02 58.34669 -134.55229 605 ft 79 kts 173°
2026-04-29 13:02 58.34215 -134.55740 775 ft 82 kts 242°
2026-04-29 13:03 58.34205 -134.56845 910 ft 87 kts 282°
2026-04-29 13:03 58.34352 -134.57987 987 ft 90 kts 281°
2026-04-29 13:03 58.34493 -134.59169 1044 ft 94 kts 281°
2026-04-29 13:03 58.34652 -134.60419 1061 ft 100 kts 283°
2026-04-29 13:04 58.34845 -134.61736 1058 ft 105 kts 286°
2026-04-29 13:04 58.35021 -134.63092 1056 ft 106 kts 269°
2026-04-29 13:04 58.34914 -134.64478 1055 ft 106 kts 251°
2026-04-29 13:04 58.34642 -134.65707 1229 ft 100 kts 243°
2026-04-29 13:05 58.34431 -134.66956 1430 ft 100 kts 259°
2026-04-29 13:05 58.34361 -134.68339 1530 ft 109 kts 261°
2026-04-29 13:05 58.34244 -134.69809 1510 ft 112 kts 255°
2026-04-29 13:05 58.34111 -134.71239 1507 ft 109 kts 258°
2026-04-29 13:06 58.33993 -134.72656 1507 ft 108 kts 258°
2026-04-29 13:06 58.33825 -134.74014 1503 ft 101 kts 241°
2026-04-29 13:06 58.33423 -134.75070 1507 ft 96 kts 220°
2026-04-29 13:06 58.32909 -134.75848 1507 ft 94 kts 213°
2026-04-29 13:07 58.32378 -134.76576 1507 ft 94 kts 212°
2026-04-29 13:07 58.31840 -134.77306 1507 ft 94 kts 212°
2026-04-29 13:07 58.31304 -134.78026 1507 ft 95 kts 212°
2026-04-29 13:07 58.30767 -134.78751 1506 ft 95 kts 212°
2026-04-29 13:08 58.30238 -134.79511 1507 ft 96 kts 216°
2026-04-29 13:08 58.29715 -134.80315 1508 ft 96 kts 216°
2026-04-29 13:08 58.29213 -134.81155 1512 ft 97 kts 224°
2026-04-29 13:08 58.28782 -134.82114 1516 ft 98 kts 226°
2026-04-29 13:09 58.28358 -134.83087 1511 ft 98 kts 227°
2026-04-29 13:09 58.27929 -134.84084 1507 ft 97 kts 227°
2026-04-29 13:09 58.27508 -134.85068 1509 ft 93 kts 227°
2026-04-29 13:09 58.27251 -134.86107 1504 ft 86 kts 259°
2026-04-29 13:10 58.27208 -134.87227 1503 ft 81 kts 264°
2026-04-29 13:10 58.27182 -134.88252 1344 ft 76 kts 266°
2026-04-29 13:10 58.27145 -134.89214 1179 ft 74 kts 264°
2026-04-29 13:10 58.27117 -134.90140 1036 ft 75 kts 268°
2026-04-29 13:11 58.27030 -134.91083 935 ft 70 kts 236°
2026-04-29 13:11 58.26666 -134.91669 892 ft 70 kts 207°
2026-04-29 13:11 58.26244 -134.92131 929 ft 65 kts 201°
2026-04-29 13:11 58.25817 -134.92513 929 ft 73 kts 200°
2026-04-29 13:12 58.25331 -134.92955 930 ft 76 kts 204°
2026-04-29 13:12 58.24864 -134.93384 937 ft 73 kts 201°
2026-04-29 13:12 58.24391 -134.93791 942 ft 76 kts 201°
2026-04-29 13:12 58.23911 -134.94174 929 ft 72 kts 189°
2026-04-29 13:13 58.23441 -134.94006 861 ft 70 kts 143°
2026-04-29 13:13 58.23148 -134.93265 786 ft 68 kts 116°
2026-04-29 13:13 58.22989 -134.92462 623 ft 68 kts 97°
2026-04-29 13:13 58.23136 -134.91634 384 ft 69 kts 52°
2026-04-29 13:14 58.23513 -134.91153 222 ft 66 kts 24°
2026-04-29 13:14 58.23941 -134.90830 96 ft 63 kts 24°
2026-04-29 13:14 58.24313 -134.90530 38 ft 54 kts 26°
2026-04-29 13:14 58.24609 -134.90268 5 ft 30 kts 23°
2026-04-29 13:15 58.24741 -134.90169 4 ft 16 kts 22°
2026-04-29 13:15 58.24859 -134.90076 4 ft 20 kts 25°
2026-04-29 13:15 58.24992 -134.89969 4 ft 20 kts 20°
2026-04-29 13:15 58.25126 -134.89862 4 ft 21 kts 35°
2026-04-29 13:16 58.25231 -134.89740 4 ft 12 kts 15°
2026-04-29 13:16 58.25312 -134.89711 4 ft 12 kts
2026-04-29 13:16 58.25403 -134.89696 4 ft 13 kts
2026-04-29 13:16 58.25474 -134.89671 4 ft 6 kts 29°
2026-04-29 13:17 58.25504 -134.89648 4 ft 2 kts 14°
2026-04-29 13:17 58.25520 -134.89642 4 ft 2 kts 15°
2026-04-29 13:17 58.25531 -134.89638 4 ft 1 kts 19°
2026-04-29 13:17 58.25536 -134.89636 4 ft 0 kts 23°
2026-04-29 13:18 58.25539 -134.89635 4 ft 0 kts 25°
2026-04-29 13:18 58.25543 -134.89630 4 ft 0 kts 15°
2026-04-29 13:18 58.25547 -134.89629 4 ft 0 kts 25°
2026-04-29 13:18 58.25549 -134.89627 4 ft 0 kts 37°
2026-04-29 13:19 58.25550 -134.89627 4 ft 0 kts 43°